Find KUIPER-00504

NORAD ID: 68885 Int'l Des: 2026-095X Owner: KUIP Country: US Constellation: amazon-leo operational
LEOCIRCULAR

Current View

Loading 3D Globe...

About KUIPER-00504

KUIPER-00504 (NORAD 68885) is a amazon-leo constellation satellite launched Apr 28, 2026 by KUIP of US. It operates in LEO, CIRCULAR orbit with a mass of 490.00 kg.

About KUIPER-00504

Description loading...

Upcoming Passes

Passes for default location (London). Set your location on the main map for personalized predictions.

Altitude History

Loading altitude history...

Two-Line Element Set

1 68885U 26095X 26168.91668981 -.00032925 00000-0 -43107-2 0 9998
2 68885 51.9006 252.4276 0000434 101.2230 333.1420 14.79936504 5645
Epoch: Jun 17, 2026 • Age: 10 hours

Current Status

Altitude 642.2 km
Velocity 7.54 km/s
Sub-Earth Point -38.53°S, 75.78°E
Launch Date Apr 28, 2026
Age 0.1 years
Type internet

Technical Details

Classification Payload
Mass 490.00 kg
Dry Mass 490.00 kg
Total Mass 490.00 kg
Length 1.80 m
Diameter 0.70 m
Span 5.00 m
Shape Box + 2 pan
Manufacturer KUIP
Bus Type Kuiper
Phase Status In Orbit
Owner/State KUIP/US

Most Searched